FW2367 Weather Reports


Display with metric or nautical units.
time (UTC)temp
F
wind
direction
speed
MPH
gust
MPH
rain 1hr
in
rain 24hr
in
rain mn
in
humidity
%
barometer
mb
20190921043224 64 292 0.0 0.0 0.00 0.00 0.00 66 1.0
20190921042324 64 292 0.0 0.0 0.00 0.00 0.00 65 1.0
20190921041423 64 292 0.0 0.0 0.00 0.00 0.00 65 1.0
20190921040455 64 292 1.0 0.0 0.00 0.00 0.00 64 1.0
20190921035533 65 292 0.0 0.0 0.00 0.00 0.00 63 1.0
20190921034556 65 292 1.0 0.0 0.00 0.00 0.00 64 1.0
20190921033638 65 292 1.0 0.0 0.00 0.00 0.00 63 1.0
20190921032731 66 292 1.0 0.0 0.00 0.00 0.00 63 1.0
20190921031831 66 292 1.0 0.0 0.00 0.00 0.00 62 1.0
20190921030843 66 292 0.0 0.0 0.00 0.00 0.00 63 1.0
20190921025942 66 292 1.0 0.0 0.00 0.00 0.00 63 1.0
20190921025036 66 292 0.0 0.0 0.00 0.00 0.00 63 1.0
20190921024041 66 292 0.0 0.0 0.00 0.00 0.00 63 1.0
20190921023035 66 292 0.0 0.0 0.00 0.00 0.00 62 1.0
20190921022040 67 292 0.0 0.0 0.00 0.00 0.00 61 1.0
20190921021131 66 292 1.0 0.0 0.00 0.00 0.00 62 1.0
20190921020148 67 292 0.0 0.0 0.00 0.00 0.00 62 1.0
20190921015241 67 292 0.0 0.0 0.00 0.00 0.00 61 1.0
20190921014342 67 292 0.0 0.0 0.00 0.00 0.00 60 1.0
20190921013431 68 292 0.0 0.0 0.00 0.00 0.00 59 1.0
20190921012440 68 292 0.0 0.0 0.00 0.00 0.00 58 1.0
20190921011443 68 292 0.0 0.0 0.00 0.00 0.00 58 1.0
20190921010533 69 292 0.0 0.0 0.00 0.00 0.00 57 1.0
20190921005538 69 292 0.0 0.0 0.00 0.00 0.00 56 1.0
20190921004540 70 292 0.0 0.0 0.00 0.00 0.00 55 1.0
20190921003532 70 292 0.0 0.0 0.00 0.00 0.00 53 1.0
20190921002537 71 292 0.0 0.0 0.00 0.00 0.00 51 1.0
20190921001540 71 292 0.0 0.0 0.00 0.00 0.00 49 1.0
20190921000633 71 292 0.0 0.0 0.00 0.00 0.00 49 1.0
20190920235646 72 292 0.0 0.0 0.00 0.00 0.00 49 1.0
20190920234738 72 292 0.0 0.0 0.00 0.00 0.00 48 1.0
20190920233740 72 292 0.0 0.0 0.00 0.00 0.00 48 1.0
20190920232835 72 292 0.0 0.0 0.00 0.00 0.00 47 1.0
20190920231832 72 292 0.0 0.0 0.00 0.00 0.00 46 1.0
20190920230842 73 292 0.0 0.0 0.00 0.00 0.00 47 1.0
20190920225842 73 292 0.0 0.0 0.00 0.00 0.00 46 1.0
20190920224842 74 292 0.0 0.0 0.00 0.00 0.00 44 1.0
20190920223940 74 292 0.0 0.0 0.00 0.00 0.00 44 1.0
20190920222941 75 292 0.0 0.0 0.00 0.00 0.00 44 1.0
20190920221940 75 292 0.0 0.0 0.00 0.00 0.00 43 1.0
20190920221033 75 270 0.0 0.0 0.00 0.00 0.00 43 1.0
20190920220042 76 292 0.0 0.0 0.00 0.00 0.00 43 1.0
20190920215131 76 292 0.0 0.0 0.00 0.00 0.00 42 1.0
20190920214231 76 202 0.0 0.0 0.00 0.00 0.00 41 1.0
20190920213234 76 202 0.0 0.0 0.00 0.00 0.00 42 1.0
20190920212331 76 336 0.0 0.0 0.00 0.00 0.00 40 1.0
20190920211341 77 292 2.0 0.0 0.00 0.00 0.00 42 1.0
20190920210431 76 225 0.0 0.0 0.00 0.00 0.00 41 1.0
20190920205444 76 247 0.0 0.0 0.00 0.00 0.00 40 1.0
20190920204444 76 292 0.0 0.0 0.00 0.00 0.00 40 1.0
20190920203439 76 202 0.0 0.0 0.00 0.00 0.00 39 1.0
20190920202438 76 24 0.0 0.0 0.00 0.00 0.00 39 1.0
20190920201432 76 67 0.0 0.0 0.00 0.00 0.00 40 1.0
20190920200443 75 44 0.0 0.0 0.00 0.00 0.00 39 1.0
20190920195537 76 315 0.0 0.0 0.00 0.00 0.00 38 1.0
20190920194541 76 227 2.0 0.0 0.00 0.00 0.00 38 1.0
20190920193609 76 182 1.0 0.0 0.00 0.00 0.00 39 1.0
20190920192543 76 246 1.0 0.0 0.00 0.00 0.00 40 1.0
20190920191604 76 325 0.0 0.0 0.00 0.00 0.00 39 1.0
20190920190657 76 292 0.0 0.0 0.00 0.00 0.00 39 1.0
20190920185641 77 292 0.0 0.0 0.00 0.00 0.00 38 1.0
20190920184731 77 67 0.0 0.0 0.00 0.00 0.00 37 1.0
20190920183830 78 294 0.0 0.0 0.00 0.00 0.00 36 1.0
20190920182843 79 60 1.0 0.0 0.00 0.00 0.00 35 1.0
20190920181933 79 312 0.0 0.0 0.00 0.00 0.00 36 1.0
20190920180938 79 312 2.0 0.0 0.00 0.00 0.00 36 1.0
20190920175949 78 279 0.0 0.0 0.00 0.00 0.00 35 1.0
20190920175047 78 313 1.0 0.0 0.00 0.00 0.00 34 1.0
20190920174039 78 315 1.0 0.0 0.00 0.00 0.00 33 1.0
20190920173049 79 290 0.0 0.0 0.00 0.00 0.00 33 1.0
20190920172034 78 345 0.0 0.0 0.00 0.00 0.00 34 1.0
20190920171130 77 265 0.0 0.0 0.00 0.00 0.00 35 1.0
20190920170150 76 270 0.0 0.0 0.00 0.00 0.00 35 1.0
20190920165241 76 292 0.0 0.0 0.00 0.00 0.00 34 1.0
20190920164240 76 315 0.0 0.0 0.00 0.00 0.00 34 1.0
20190920163330 76 314 2.0 0.0 0.00 0.00 0.00 35 1.0
20190920162342 75 317 0.0 0.0 0.00 0.00 0.00 37 1.0
20190920161339 74 270 1.0 0.0 0.00 0.00 0.00 37 1.0
20190920160339 73 214 0.0 0.0 0.00 0.00 0.00 40 1.0
20190920155434 72 244 1.0 0.0 0.00 0.00 0.00 42 1.0
20190920154439 73 286 2.0 0.0 0.00 0.00 0.00 40 1.0
20190920153531 73 287 3.0 0.0 0.00 0.00 0.00 41 1.0
20190920152531 72 258 0.0 0.0 0.00 0.00 0.00 42 1.0
20190920151535 72 292 0.0 0.0 0.00 0.00 0.00 41 1.0
20190920150630 72 284 0.0 0.0 0.00 0.00 0.00 41 1.0
20190920145640 72 270 0.0 0.0 0.00 0.00 0.00 43 1.0
20190920144731 71 315 0.0 0.0 0.00 0.00 0.00 44 1.0
20190920143829 71 234 0.0 0.0 0.00 0.00 0.00 45 1.0
20190920142846 69 250 0.0 0.0 0.00 0.00 0.00 48 1.0
20190920141942 67 260 0.0 0.0 0.00 0.00 0.00 51 1.0
20190920140930 65 285 1.0 0.0 0.00 0.00 0.00 53 1.0
20190920135941 64 292 2.0 0.0 0.00 0.00 0.00 53 1.0
20190920134943 63 292 2.0 0.0 0.00 0.00 0.00 56 1.0
20190920133939 62 274 2.0 0.0 0.00 0.00 0.00 57 1.0
20190920133033 61 270 2.0 0.0 0.00 0.00 0.00 59 1.0
20190920132031 60 270 2.0 0.0 0.00 0.00 0.00 60 1.0
20190920131041 59 292 1.0 0.0 0.00 0.00 0.00 63 1.0
20190920130131 58 292 2.0 0.0 0.00 0.00 0.00 65 1.0
20190920125229 57 292 2.0 0.0 0.00 0.00 0.00 68 1.0
20190920124238 55 292 1.0 0.0 0.00 0.00 0.00 71 1.0
20190920123336 54 292 2.0 0.0 0.00 0.00 0.00 74 1.0
20190920122334 53 292 2.0 0.0 0.00 0.00 0.00 77 1.0
20190920121431 51 292 1.0 0.0 0.00 0.00 0.00 79 1.0
20190920120439 50 292 1.0 0.0 0.00 0.00 0.00 81 1.0
20190920115533 50 292 1.0 0.0 0.00 0.00 0.00 81 1.0
20190920114544 49 315 1.0 0.0 0.00 0.00 0.00 82 1.0
20190920113638 49 315 0.0 0.0 0.00 0.00 0.00 83 1.0
20190920112634 48 315 1.0 0.0 0.00 0.00 0.00 84 1.0
20190920111731 48 315 1.0 0.0 0.00 0.00 0.00 85 1.0
20190920110739 47 315 1.0 0.0 0.00 0.00 0.00 86 1.0
20190920105739 47 315 1.0 0.0 0.00 0.00 0.00 86 1.0
20190920104831 47 315 0.0 0.0 0.00 0.00 0.00 86 1.0
20190920103836 47 315 0.0 0.0 0.00 0.00 0.00 87 1.0
20190920102840 47 315 0.0 0.0 0.00 0.00 0.00 86 1.0
20190920101840 47 315 0.0 0.0 0.00 0.00 0.00 86 1.0
20190920100836 47 315 0.0 0.0 0.00 0.00 0.00 86 1.0
20190920095935 47 315 0.0 0.0 0.00 0.00 0.00 85 1.0
20190920094937 47 315 0.0 0.0 0.00 0.00 0.00 86 1.0
20190920093935 47 315 1.0 0.0 0.00 0.00 0.00 85 1.0
20190920092938 48 315 0.0 0.0 0.00 0.00 0.00 84 1.0
20190920091939 48 315 0.0 0.0 0.00 0.00 0.00 85 1.0
20190920091038 48 315 1.0 0.0 0.00 0.00 0.00 84 1.0
20190920090041 48 315 1.0 0.0 0.00 0.00 0.00 85 1.0
20190920085133 48 315 1.0 0.0 0.00 0.00 0.00 86 1.0
20190920084226 48 315 1.0 0.0 0.00 0.00 0.00 85 1.0
20190920083252 48 315 0.0 0.0 0.00 0.00 0.00 86 1.0
20190920082343 48 315 1.0 0.0 0.00 0.00 0.00 86 1.0
20190920081401 48 315 0.0 0.0 0.00 0.00 0.00 85 1.0
20190920080448 49 315 1.0 0.0 0.00 0.00 0.00 86 1.0
20190920075538 49 315 0.0 0.0 0.00 0.00 0.00 84 1.0
20190920074631 49 315 0.0 0.0 0.00 0.00 0.00 84 1.0
20190920073719 49 315 0.0 0.0 0.00 0.00 0.00 83 1.0
20190920072723 49 315 0.0 0.0 0.00 0.00 0.00 84 1.0
20190920071815 50 315 1.0 0.0 0.00 0.00 0.00 83 1.0
20190920070643 50 315 0.0 0.0 0.00 0.00 0.00 83 1.0
20190920065639 50 315 0.0 0.0 0.00 0.00 0.00 83 1.0
20190920064629 50 315 0.0 0.0 0.00 0.00 0.00 83 1.0
20190920063634 51 315 0.0 0.0 0.00 0.00 0.00 83 1.0
20190920062632 51 270 0.0 0.0 0.00 0.00 0.00 84 1.0
20190920061730 51 270 0.0 0.0 0.00 0.00 0.00 85 1.0
20190920060731 51 270 0.0 0.0 0.00 0.00 0.00 84 1.0
20190920055738 51 270 0.0 0.0 0.00 0.00 0.00 83 1.0
20190920054835 51 270 0.0 0.0 0.00 0.00 0.00 83 1.0
20190920053844 51 270 1.0 0.0 0.00 0.00 0.00 82 1.0
20190920052838 51 270 1.0 0.0 0.00 0.00 0.00 82 1.0
20190920051838 52 270 0.0 0.0 0.00 0.00 0.00 81 1.0
20190920050934 52 270 0.0 0.0 0.00 0.00 0.00 80 1.0
20190920050033 52 270 1.0 0.0 0.00 0.00 0.00 80 1.0
20190920045128 53 270 0.0 0.0 0.00 0.00 0.00 80 1.0
20190920044147 53 270 0.0 0.0 0.00 0.00 0.00 79 1.0